Orbital Elements at Epoch 2459000.5 (2020-May-31.0) TDB
Reference: JPL 39 (heliocentric ecliptic J2000)
Element | Value | Uncertainty (1-sigma) | Units |
e | .04715343564257046 | 3.3655e-08 | |
a | 3.052064070221236 | 1.5248e-08 | au |
q | 2.908148763509057 | 1.0619e-07 | au |
i | 9.922757718221025 | 4.1527e-06 | deg |
node | 150.7127451069952 | 2.3311e-05 | deg |
peri | 112.1663507940754 | 5.3126e-05 | deg |
M | 10.65813344901046 | 4.7154e-05 | deg |
tp | 2458942.840941159580 (2020-Apr-03.34094116) | 0.00025516 | TDB |
period | 1947.551255748102 5.33 | 1.4595e-05 3.996e-08 | d yr |
n | .1848475098858003 | 1.3852e-09 | deg/d |
Q | 3.195979376933415 | 1.5967e-08 | au |
|
| | Orbit Determination Parameters
Additional Information
|